Orbital Elements at Epoch 2459200.5 (2020-Dec-17.0) TDB
Reference: JPL 17 (heliocentric ecliptic J2000)
Element | Value | Uncertainty (1-sigma) | Units |
e | .04243205614067585 | 4.651e-08 | |
a | 2.860230919289341 | 2.1237e-08 | au |
q | 2.738865440346759 | 1.2635e-07 | au |
i | 8.611308199064631 | 5.8119e-06 | deg |
node | 21.31833502354961 | 3.2894e-05 | deg |
peri | 220.7618843927771 | 8.388e-05 | deg |
M | 121.9513413246959 | 7.787e-05 | deg |
tp | 2458601.972439613310 (2019-Apr-28.47243961) | 0.00038079 | TDB |
period | 1766.851593419698 4.84 | 1.9678e-05 5.388e-08 | d yr |
n | .2037522570320854 | 2.2693e-09 | deg/d |
Q | 2.981596398231923 | 2.2138e-08 | au |
|
| | Orbit Determination Parameters
Additional Information
|